Starlink 6274

operational
NORAD ID: 56776 Int'l Des: 2023-078 Owner: SPXS Country: US Constellation: starlink
LEOCIRCULAR

Starlink 6274について

説明を読み込み中...

リアルタイム位置

3D地球を読み込み中...

次回通過

高度履歴

Altitude vs Time

uPlot chart will show altitude changes over time

軌道要素

1 56776U 23078K 25352.94101444 .00000060 00000-0 12804-4 0 9990
2 56776 69.9988 168.2323 0002959 270.5639 89.5181 14.98332406141079
Epoch: Dec 18, 2025 • Age: 18 hours

現在のステータス

高度 575.2 km
速度 7.58 km/s
衛星直下点 22.67°N, 158.19°W
打ち上げ日 May 31, 2023
運用期間 2.5 years
タイプ internet

技術仕様

分類 Payload
質量 305.00 kg
乾燥質量 290.00 kg
総質量 305.00 kg
長さ 0.20 m
直径 2.80 m
スパン 9.00 m
形状 Box + pan
製造者 SPXS
バスタイプ Starlink
フェーズステータス In Orbit
所有者/国 SPXS/US

大規模コンステレーション

Loading constellations...